Historyczne dane pomiarowe

Dodano dane terminowe – wersja testowa.

Dane z okresu 1951-2018

Wersja bazy: 1.29 [2019-01-10, lista zmian], aktualizacja planowana na 2019-02-07

Dane meteo z obszaru Polski uzyskane na podstawie danych udostępnionych przez Instytut Meteorologii i Gospodarki Wodnej – Państwowy Instytut Badawczy.

 

Wybierz Datę:    

       

TemperaturaWilgotnośćWiatrCiśnienieOpadyŚniegCzas trwania zjawisk
 Stacja t tx tn tng RH VA  wxwx mslp ppp RRR   cm mm wxwxwxwxwxwxwx
2018-12-31 1.5 3.3 0.2 0.0 96.5 6.6- 5.4--1023.0 995.0 2.2 2.2 0.0- 0.0--------
2018-12-30 3.0 4.0 1.6 1.4 97.0 7.4- 3.9--1019.5 991.8 0.9 0.2 0.7- 0.0--------
2018-12-29 2.6 3.7 1.6 1.0 93.1 6.9- 4.0--1023.3 995.5 0.4 0.0 0.4- 0.0--------
2018-12-28 4.4 5.3 3.5 3.0 93.8 7.9- 7.0--1017.2 989.8 4.2 4.0 0.2- 0.0--------
2018-12-27 3.4 5.2 2.0 1.7 92.6 7.3- 6.0--1019.9 992.3 5.3 3.9 1.4- 0.0--------
2018-12-26 2.3 3.4 -0.2 -0.4 92.9 6.7- 7.9--1019.1 991.4 0.5 0.5 0.0- 0.0--------
2018-12-25 -1.1 -0.2 -2.4 -2.4 88.8 5.0- 6.1--1021.4 993.2 0.0 0.0 0.0 1 0.0--------
2018-12-24 0.7 3.7 -1.9 -2.4 91.3 6.0- 6.8--1012.1 984.4 0.4 0.2 0.2- 0.0--------
2018-12-23 1.9 4.9 0.6 -0.1 82.9 5.8- 7.0--1014.4 986.8 2.9 0.0 2.9- 0.0--------
2018-12-22 3.5 5.3 0.9 0.0 89.0 7.0- 8.6--1005.2 977.9 1.4 1.1 0.3 4 0.0--------
2018-12-21 0.9 2.0 -5.4 -5.4 83.9 5.5- 6.1--1018.3 990.4 3.8 0.0 3.8 8 1.9--------
2018-12-20 -5.2 -4.0 -6.6 -6.3 90.3 3.8- 4.3--1024.1 995.5 0.6 0.4 0.2 8 2.0--------
2018-12-19 -4.0 -3.0 -4.4 -4.3 85.3 3.9- 3.9--1030.61001.9 0.0 0.0 0.0 10 2.2--------
2018-12-18 -4.6 -2.6 -9.3-12.7 94.1 4.1- 1.0--1030.81002.1 0.0 0.0 0.0 10 2.1--------
2018-12-17 -2.5 -0.4 -6.9-10.0 95.5 4.9- 1.6--1023.7 995.3 0.0 0.0 0.0 11 1.8--------
2018-12-16 -2.1 -1.4 -3.0 -2.9 91.4 4.8- 5.3--1022.1 993.8 3.4 0.3 3.1 4 0.0--------
2018-12-15 -2.6 -0.6 -4.4 -6.0 93.4 4.7- 5.1--1028.1 999.6 0.4 0.0 0.4 1 0.0--------
2018-12-14 -1.1 -0.4 -2.4 -3.0 94.0 5.3- 2.3--1025.4 997.2 0.1 0.1 0.0 2 0.0--------
2018-12-13 -0.5 0.3 -0.9 -1.0 92.4 5.4- 4.6--1021.4 993.4 0.5 0.3 0.2 1 0.0--------
2018-12-12 -1.3 1.1 -5.0 -7.2 97.4 5.5- 2.3--1019.2 991.1 0.2 0.0 0.2- 0.0--------
2018-12-11 1.0 3.2 0.4 -0.2 91.6 6.0- 2.6--1012.2 984.5 0.0 0.0 0.0- 0.0--------
2018-12-10 3.0 4.3 1.2 0.5 92.8 7.1- 6.5--1003.9 976.7 1.9 1.9 0.0- 0.0--------
2018-12-09 2.7 4.8 0.7 -0.1 87.3 6.5- 5.5--1001.1 973.8 0.3 0.0 0.3- 0.0--------
2018-12-08 2.8 4.8 1.2 0.8 93.8 7.0- 6.1--1006.3 979.0 1.4 1.4 0.0- 0.0--------
2018-12-07 0.6 1.5 -1.9 -2.0 89.3 5.7- 6.1--1014.5 986.7 6.3 3.1 3.2- 0.0--------
2018-12-06 -1.2 0.0 -2.3 -2.7 89.5 5.0- 2.0--1027.0 998.7 0.0 0.0 0.0- 0.0--------
2018-12-05 0.6 6.3 -1.7 -2.6 90.0 5.8- 5.0--1025.4 997.3 0.0 0.0 0.0- 0.0--------
2018-12-04 5.7 7.4 4.6 3.6 89.1 8.2- 5.8--1010.7 983.5 2.2 1.6 0.6- 0.0--------
2018-12-03 4.0 6.1 -1.9 -4.2 84.8 6.9- 6.5--1008.8 981.5 0.7 0.7 0.0- 0.0--------
2018-12-02 -1.0 2.4 -8.4 -9.0 76.8 4.3- 4.5--1016.7 988.7 0.4 0.0 0.4- 0.0--------
2018-12-01 -8.8 -3.3-14.1-15.8 76.4 2.4- 2.4--1022.3 993.3 0.1 0.0 0.1- 0.0--------
2018-11-30 -8.3 -3.4 -9.9-11.7 70.9 2.3- 4.8--1033.21004.0 0.0 0.0 0.0- 0.0--------
2018-11-29 -5.7 -2.8 -7.2 -8.6 80.8 3.2- 5.6--1039.61010.5 0.0 0.0 0.0- 0.0--------
2018-11-28 -3.5 -0.6 -6.0 -9.2 83.5 3.9- 2.9--1031.01002.4 0.0 0.0 0.0- 0.0--------
2018-11-27 -3.3 -1.1 -4.8 -6.3 84.9 4.1- 3.5--1018.7 990.4 0.0 0.0 0.0- 0.0--------
2018-11-26 1.0 4.9 -1.3 -1.0 97.1 6.5- 5.0--1012.1 984.4 0.0 0.0 0.0- 0.0--------
2018-11-25 4.9 6.2 4.2 3.2 98.3 8.5- 2.5--1014.1 986.8 0.0 0.0 0.0- 0.0--------
2018-11-24 1.8 6.8 -4.8 -4.2 93.5 6.6- 2.4--1019.5 991.7 1.5 0.0 1.5- 0.0--------
2018-11-23 -5.2 -4.7 -6.1 -5.2 96.4 4.0- 2.4--1029.41000.6 0.0 0.0 0.0- 0.0--------
2018-11-22 -4.1 -0.9 -5.3 -6.0 91.6 4.1- 3.1--1028.4 999.8 0.0 0.0 0.0- 0.0--------
2018-11-21 -1.3 -0.4 -2.6 -3.1 86.6 4.8- 5.5--1025.6 997.3 0.0 0.0 0.0- 0.0--------
2018-11-20 -1.6 0.0 -3.4 -4.4 86.9 4.7- 5.4--1026.0 997.7 0.0 0.0 0.0- 0.0--------
2018-11-19 -1.2 0.3 -1.9 -1.9 91.9 5.1- 4.5--1024.5 996.3 0.1 0.1 0.0- 0.0--------
2018-11-18 -2.6 0.7 -6.9 -8.6 83.8 4.2- 1.5--1028.61000.2 0.0 0.0 0.0- 0.0--------
2018-11-17 -2.3 1.7 -6.0 -8.8 75.3 3.9- 2.4--1039.81011.0 0.0 0.0 0.0- 0.0--------
2018-11-16 1.0 4.0 -1.1 -3.7 91.0 6.0- 3.5--1039.31010.9 0.0 0.0 0.0- 0.0--------
2018-11-15 5.7 7.5 4.0 3.5 92.3 8.5- 3.5--1030.81003.1 2.9 2.9 0.0- 0.0--------
2018-11-14 7.8 9.1 5.1 4.3 91.4 9.6- 5.6--1026.0 998.6 0.2 0.2 0.0- 0.0--------
2018-11-13 6.3 9.7 4.0 3.1 91.3 8.7- 3.9--1026.5 999.0 2.7 0.0 2.7- 0.0--------
2018-11-12 5.4 10.2 0.0 -2.7 92.3 8.4- 2.9--1027.1 999.5 0.0 0.0 0.0- 0.0--------
2018-11-11 4.4 12.3 -0.6 -3.5 91.4 7.7- 2.6--1020.7 993.1 0.0 0.0 0.0- 0.0--------
2018-11-10 4.9 12.3 1.4 -0.4 96.4 8.5- 1.8--1018.9 991.4 0.0 0.0 0.0- 0.0--------
2018-11-09 5.1 15.8 -0.1 -1.4 94.8 8.4- 1.1--1021.9 994.3 0.0 0.0 0.0- 0.0--------
2018-11-08 6.0 14.5 1.4 -0.8 89.9 8.4- 1.4--1022.1 994.7 0.0 0.0 0.0- 0.0--------
2018-11-07 9.4 13.1 8.0 4.8 87.3 10.3- 3.6--1021.6 994.5 0.0 0.0 0.0- 0.0--------
2018-11-06 8.6 13.4 3.9 2.3 93.4 10.5- 3.3--1022.8 995.6 0.0 0.0 0.0- 0.0--------
2018-11-05 11.1 16.1 8.2 8.5 89.5 11.7- 3.3--1022.8 995.8 0.0 0.0 0.0- 0.0--------
2018-11-04 11.5 12.7 10.5 10.6 99.3 13.5- 3.5--1025.9 998.9 0.0 0.0 0.0- 0.0--------
2018-11-03 12.3 19.7 8.8 6.3 94.6 13.5- 2.0--1026.3 999.4 0.0 0.0 0.0- 0.0--------
2018-11-02 13.4 18.8 11.7 10.3 91.5 14.0- 2.6--1024.3 997.5 1.7 1.7 0.0- 0.0--------
55.7 ms

 

Źródłem pochodzenia danych jest Instytut Meteorologii i Gospodarki Wodnej – Państwowy Instytut Badawczy. Dane Instytutu Meteorologii i Gospodarki Wodnej – Państwowego Instytutu Badawczego zostały przetworzone.

Dane źródłowe można odnaleźć na stronie https://dane.imgw.pl